EW3867 Weather Reports


Display with metric or nautical units.
time (UTC)temp
F
wind
direction
speed
MPH
gust
MPH
rain 1hr
in
rain 24hr
in
rain mn
in
humidity
%
barometer
mb
20260507091416 29 350 0.0 0.0 0.00 0.01 0.00 53 1018.9
20260507085344 30 350 0.0 0.0 0.00 0.01 0.00 52 1018.6
20260507084323 30 350 3.0 0.0 0.00 0.01 0.00 52 1018.6
20260507083317 29 348 6.0 11.0 0.00 0.01 0.00 54 1018.6
20260507081159 28 340 0.0 0.0 0.00 0.01 0.00 53 1018.6
20260507075050 31 340 0.0 0.0 0.00 0.01 0.00 49 1018.6
20260507074039 31 340 0.0 0.0 0.00 0.01 0.00 49 1018.5
20260507071837 31 340 0.0 0.0 0.00 0.01 0.00 49 1018.5
20260507070820 32 340 0.0 0.0 0.00 0.01 0.00 49 1018.7
20260507065811 32 340 0.0 0.0 0.00 0.01 0.00 48 1018.2
20260507064755 32 340 0.0 0.0 0.00 0.01 0.00 47 1018.3
20260507063725 34 340 0.0 0.0 0.00 0.01 0.00 45 1018.3
20260507062748 35 340 0.0 3.0 0.00 0.01 0.00 42 1018.3
20260507061753 36 340 0.0 0.0 0.00 0.01 0.00 41 1018.3
20260507060746 37 340 0.0 0.0 0.00 0.01 0.00 40 1018.1
20260507055738 38 340 0.0 0.0 0.00 0.01 0.01 38 1018.0
20260507054705 39 340 0.0 0.0 0.00 0.01 0.01 38 1018.0
20260507053730 39 340 1.0 10.0 0.00 0.01 0.01 38 1017.8
20260507052725 40 339 4.0 11.0 0.00 0.01 0.01 36 1017.8
20260507051704 40 334 1.0 11.0 0.00 0.01 0.01 36 1017.6
20260507050640 41 336 3.0 11.0 0.00 0.01 0.01 36 1017.5
20260507045605 41 336 1.0 13.0 0.00 0.01 0.01 35 1017.5
20260507044623 41 337 7.0 13.0 0.00 0.01 0.01 35 1017.4
20260507042522 40 332 3.0 11.0 0.00 0.01 0.01 36 1017.0
20260507041526 40 0 0.0 8.0 0.00 0.01 0.01 36 1017.0
20260507040452 40 0 0.0 4.0 0.00 0.01 0.01 37 1016.8
20260507035441 40 0 0.0 1.0 0.00 0.01 0.01 36 1016.6
20260507033240 41 0 0.0 0.0 0.00 0.01 0.01 35 1016.5
20260507032224 42 0 0.0 5.0 0.00 0.01 0.01 35 1016.3
20260507031241 41 0 3.0 10.0 0.00 0.01 0.01 36 1016.0
20260507030257 42 0 3.0 10.0 0.00 0.01 0.01 37 1015.9
20260507025238 42 0 1.0 12.0 0.00 0.01 0.01 37 1015.9
20260507023128 44 0 0.0 0.0 0.00 0.01 0.01 36 1015.8
20260507022128 45 0 0.0 0.0 0.00 0.01 0.01 36 1015.6
20260507021055 46 0 0.0 0.0 0.00 0.01 0.01 34 1015.3
20260507020115 47 313 0.0 0.0 0.00 0.01 0.01 34 1015.2
20260507015040 48 332 1.0 5.0 0.00 0.01 0.01 33 1015.1
20260507014016 49 0 4.0 12.0 0.00 0.01 0.01 31 1014.9
20260507011822 50 0 7.0 15.0 0.00 0.01 0.01 28 1014.5
20260507010754 51 0 4.0 19.0 0.00 0.01 0.01 26 1014.3
20260507005801 51 267 9.0 19.0 0.00 0.01 0.01 27 1014.0
20260507004744 52 331 9.0 18.0 0.00 0.01 0.01 27 1013.9
20260507003726 52 0 8.0 21.0 0.00 0.01 0.01 26 1013.7
20260507002717 52 0 14.0 21.0 0.00 0.01 0.01 26 1013.6
20260507001720 53 0 10.0 20.0 0.00 0.01 0.01 24 1013.2
20260507000721 53 348 11.0 25.0 0.00 0.01 0.01 25 1013.3
20260506233439 54 342 14.0 22.0 0.00 0.01 0.01 27 1012.7
20260506232412 54 0 14.0 22.0 0.00 0.01 0.01 28 1012.6
20260506231345 54 338 13.0 20.0 0.00 0.01 0.01 29 1012.5
20260506230324 54 0 14.0 22.0 0.00 0.01 0.01 31 1012.5
20260506224140 53 0 16.0 24.0 0.00 0.01 0.01 33 1012.3
20260506223119 52 339 15.0 24.0 0.00 0.01 0.01 33 1012.1
20260506220933 52 0 14.0 23.0 0.00 0.01 0.01 35 1012.0
20260506215955 50 342 15.0 22.0 0.00 0.01 0.01 39 1011.9
20260506215005 54 346 16.0 24.0 0.00 0.01 0.01 36 1011.7
20260506212841 52 0 18.0 26.0 0.00 0.01 0.01 39 1011.5
20260506211837 52 334 18.0 32.0 0.00 0.01 0.01 45 1011.5
20260506210833 53 336 20.0 32.0 0.00 0.01 0.01 38 1011.5
20260506204703 52 355 16.0 31.0 0.00 0.01 0.01 40 1010.9
20260506203652 51 0 19.0 31.0 0.00 0.01 0.01 44 1011.0
20260506202646 52 331 20.0 29.0 0.00 0.01 0.01 36 1011.0
20260506201658 52 0 14.0 25.0 0.00 0.01 0.01 48 1010.7
20260506200643 52 329 13.0 19.0 0.00 0.01 0.01 45 1010.2
20260506195615 51 0 13.0 24.0 0.00 0.01 0.01 48 1010.4
20260506194545 50 331 14.0 24.0 0.00 0.01 0.01 51 1010.1
20260506193528 51 0 13.0 28.0 0.00 0.01 0.01 48 1010.2
20260506192516 53 0 11.0 28.0 0.00 0.01 0.01 51 1010.1
20260506191517 51 0 11.0 22.0 0.00 0.01 0.01 55 1010.1
20260506190524 49 0 15.0 22.0 0.00 0.01 0.01 56 1010.3
20260506185523 48 0 13.0 20.0 0.00 0.01 0.01 64 1010.5
20260506184523 46 0 9.0 17.0 0.00 0.01 0.01 75 1010.5
20260506183458 43 265 3.0 16.0 0.00 0.01 0.01 81 1010.8
20260506181411 40 274 4.0 11.0 0.00 0.01 0.01 83 1011.4
20260506180422 39 0 4.0 11.0 0.00 0.01 0.01 84 1011.3
20260506175446 39 333 9.0 21.0 0.00 0.01 0.01 83 1011.5
20260506174434 40 331 14.0 32.0 0.00 0.00 0.00 82 1011.6
20260506173410 42 0 19.0 32.0 0.00 0.00 0.00 75 1011.2
20260506172408 46 0 17.0 27.0 0.00 0.00 0.00 64 1010.4
20260506171344 46 0 18.0 30.0 0.00 0.00 0.00 62 1010.1
20260506170340 47 0 19.0 30.0 0.00 0.00 0.00 63 1009.8
20260506165352 53 0 14.0 23.0 0.00 0.00 0.00 40 1008.7
20260506162049 54 261 7.0 18.0 0.00 0.00 0.00 40 1008.6
20260506161105 53 256 10.0 18.0 0.00 0.00 0.00 42 1008.6
20260506160057 52 254 9.0 17.0 0.00 0.00 0.00 43 1008.7
20260506155105 51 264 11.0 17.0 0.00 0.00 0.00 44 1008.8
20260506154114 50 238 6.0 18.0 0.00 0.00 0.00 47 1008.8
20260506153046 49 255 7.0 20.0 0.00 0.00 0.00 47 1008.9
20260506152023 49 252 7.0 20.0 0.00 0.00 0.00 48 1008.8
20260506151030 49 237 6.0 16.0 0.00 0.00 0.00 49 1008.7
20260506145955 47 258 1.0 0.0 0.00 0.00 0.00 52 1008.7
20260506143843 47 252 3.0 11.0 0.00 0.00 0.00 51 1008.9
20260506141727 47 258 3.0 12.0 0.00 0.00 0.00 53 1008.8
20260506140727 47 59 0.0 0.0 0.00 0.00 0.00 56 1008.7
20260506134602 44 72 0.0 0.0 0.00 0.00 0.00 61 1008.6
20260506133532 43 72 0.0 0.0 0.00 0.00 0.00 65 1008.5
20260506131351 37 73 0.0 0.0 0.00 0.00 0.00 72 1008.3
20260506130322 36 73 0.0 0.0 0.00 0.00 0.00 72 1008.2
20260506125316 36 73 0.0 0.0 0.00 0.00 0.00 73 1008.1
20260506124256 36 73 0.0 0.0 0.00 0.00 0.00 74 1008.0
20260506122118 35 74 0.0 0.0 0.00 0.00 0.00 76 1007.7
20260506121102 34 74 0.0 0.0 0.00 0.00 0.00 77 1007.6
20260506120109 33 105 0.0 0.0 0.00 0.00 0.00 78 1007.4
20260506115058 33 105 0.0 0.0 0.00 0.00 0.00 77 1007.3
20260506112920 33 105 0.0 0.0 0.00 0.00 0.00 78 1007.1
20260506111901 33 105 0.0 0.0 0.00 0.00 0.00 80 1007.2
20260506110827 32 105 0.0 0.0 0.00 0.00 0.00 82 1007.2
20260506105851 31 105 0.0 0.0 0.00 0.00 0.00 81 1007.0
20260506102628 31 105 0.0 0.0 0.00 0.00 0.00 81 1006.6
20260506100457 31 105 0.0 0.0 0.00 0.00 0.00 78 1006.3
20260506095426 32 105 0.0 0.0 0.00 0.00 0.00 77 1006.3
20260506094435 32 105 0.0 0.0 0.00 0.00 0.00 77 1006.2
20260506093437 32 105 0.0 0.0 0.00 0.00 0.00 76 1006.1
20260506092500 33 105 0.0 0.0 0.00 0.00 0.00 77 1006.2